Location: M?digepalle
(16.1753°N, 80.3496°E)
Time: 07:50:06
(UTC+00:00)

Cosmos 2315 Rocket - Pass Details

Date: 29 October 2020
Orbit: 967 x 1001 km, 82.9° (Epoch: 27 November)

Event Time Altitude Azimuth Distance (km) Brightness Sun altitude
Rises 13:38:19 0° 187° (S) 3,666 7.2 -21.7°
Reaches altitude 10° 13:40:50 10° 189° (S) 2,715 6.5 -22.3°
Maximum altitude 13:47:03 75° 274° (W) 1,004 4.1 -23.8°
Drops below altitude 10° 13:53:13 10° 359° (N) 2,703 6.2 -25.3°
Sets 13:55:44 0° 1° (N) 3,649 6.9 -25.8°
